Location: Ladirat
(44.8151°N, 1.9702°E)
Time: 08:29:40
(UTC+00:00)

Cosmos 2360 Rocket - Pass Details

Date: 15 May 2026
Orbit: 831 x 845 km, 71.0° (Epoch: 5 June)

Event Time Altitude Azimuth Distance (km) Brightness Sun altitude
Rises 21:45:35 0° 332° (NNW) 3,414 7.0 -20.3°
Reaches altitude 10° 21:48:02 10° 330° (NNW) 2,475 5.8 -20.5°
Maximum altitude 21:53:41 70° 248° (WSW) 896 2.3 -21.0°
Enters shadow 21:55:42 40° 177° (S) 1,218 2.6 -21.2°
